Location: Sternwarte ZA, Rosenfeld-Brittheim
(48.2889°N, 8.6789°E)
Time: 21:36:25
(UTC+02:00)

ISS - Pass Details

Date: 14 September 2019
Orbit: 411 x 421 km, 51.6° (Epoch: 19 September)

Event Time Altitude Azimuth Distance (km) Brightness Sun altitude
Exits shadow 06:17:55 11° 258° (WSW) 1,461 -1.7 -7.7°
Maximum altitude 06:19:46 15° 224° (SW) 1,224 -1.9 -7.4°
Drops below altitude 10° 06:21:45 10° 187° (S) 1,486 -1.2 -7.1°
Sets 06:24:29 0° 163° (SSE) 2,347 0.1 -6.7°
